Home   Weather   Timișoara   Past weeks

Flag for Romania Past Weather in Timișoara, Romania — Yesterday and Last 2 Weeks

Now
37 °F

Passing clouds.


Feels Like: 32 °F
Forecast: 23 / 35 °F
Wind: 7 mph from West

Location: Timisoara Airport

Current Time: Dec 3, 2016 at 1:42:43 pm

Latest Report: Dec 3, 2016 at 1:00 pm


Visibility: N/A

Pressure: 30.24 "Hg

Humidity: 75%

Dew Point: 30 °F

Location of TimișoaraLocation

Past Weather in Timișoara — Graph

°F

Timișoara Temperature Yesterday

Maximum temperature yesterday: 46 °F (at 2:30 pm)
Minimum temperature yesterday: 32 °F (at 11:00 pm)
Average temperature yesterday: 40 °F

High & Low Weather Summary for the Past Weeks

 TemperatureHumidityPressure
High66 °F (Nov 19, 3:00 pm)93% (Nov 19, 5:30 am)30.45 "Hg (Nov 19, 5:30 am)
Low21 °F (Nov 30, 6:30 am)43% (Nov 19, 3:00 pm)29.68 "Hg (Dec 2, 8:30 am)
Average40 °F81%30.13 "Hg
* Reported Nov 18 12:00 pm — Dec 3 12:00 pm, Timișoara, Weather by CustomWeather, © 2016

Note: Actual official high and low records may vary slightly from our data, if they occured in-between our weather recording intervals... More about our weather records

Advertising

Timișoara Weather History for the Previous 24 Hours

Scroll right to see more
 ConditionsComfort  
Time TempWeatherWind HumidityBarometerVisibility
12:00 pm
Sat, Dec 3
36 °FPassing clouds.7 mph81%30.24 "HgN/A
11:30 am36 °FPassing clouds.8 mph81%30.24 "HgN/A
11:00 am34 °FPassing clouds.8 mph87%30.24 "HgN/A
10:00 am32 °FSunny.3 mph87%30.21 "Hg10 mi
9:30 am32 °FSunny.1 mph93%30.21 "Hg10 mi
9:00 am28 °FSunny.2 mph86%30.21 "Hg10 mi
8:30 am27 °FSunny.2 mph93%30.18 "Hg10 mi
8:00 am27 °FPassing clouds.3 mph93%30.18 "HgN/A
7:30 am27 °FPassing clouds.1 mph86%30.18 "Hg6 mi
7:00 am25 °FPassing clouds.2 mph93%30.18 "Hg5 mi
6:30 am28 °FPassing clouds.2 mph93%30.15 "Hg5 mi
6:00 am27 °FPassing clouds.1 mph86%30.15 "Hg4 mi
5:30 am25 °FPassing clouds.1 mph93%30.15 "Hg4 mi
5:00 am25 °FClear.No wind93%30.15 "Hg4 mi
4:30 am27 °FClear.1 mph93%30.12 "Hg5 mi
4:00 am27 °FClear.1 mph93%30.12 "Hg5 mi
3:30 am27 °FClear.1 mph93%30.12 "Hg10 mi
3:00 am27 °FChilly.5 mph93%30.12 "Hg5 mi
2:30 am27 °FClear.6 mph93%30.12 "Hg10 mi
2:00 am28 °FClear.3 mph93%30.09 "Hg10 mi
1:30 am30 °FClear.5 mph93%30.09 "Hg10 mi
1:00 am28 °FClear.5 mph93%30.09 "Hg10 mi
12:30 am30 °FClear.2 mph93%30.09 "Hg10 mi
12:00 am32 °FClear.3 mph87%30.07 "Hg10 mi
11:30 pm
Fri, Dec 2
32 °FClear.3 mph87%30.07 "Hg10 mi
11:00 pm32 °FClear.5 mph80%30.04 "Hg10 mi
10:30 pm34 °FClear.7 mph75%30.04 "Hg10 mi
10:00 pm34 °FClear.8 mph75%30.04 "Hg10 mi
9:30 pm34 °FClear.7 mph81%30.01 "Hg10 mi
9:00 pm36 °FClear.7 mph70%30.01 "Hg10 mi
8:30 pm39 °FClear.7 mph65%29.98 "Hg10 mi
8:00 pm39 °FPassing clouds.8 mph65%29.95 "HgN/A
7:00 pm41 °FPassing clouds.7 mph70%29.92 "HgN/A
6:30 pm41 °FPassing clouds.13 mph70%29.89 "HgN/A
6:00 pm41 °FClear.12 mph70%29.86 "Hg10 mi
5:30 pm41 °FClear.14 mph66%29.83 "Hg10 mi
5:00 pm43 °FPassing clouds.15 mph61%29.80 "HgN/A
4:30 pm43 °FSunny.16 mph66%29.80 "Hg10 mi
4:00 pm45 °FPassing clouds.16 mph61%29.77 "HgN/A
3:30 pm45 °FScattered clouds.18 mph61%29.74 "HgN/A
3:00 pm46 °FScattered clouds.21 mph57%29.74 "HgN/A
2:30 pm46 °FPartly sunny.20 mph66%29.71 "HgN/A
2:00 pm45 °FPartly sunny.22 mph66%29.71 "HgN/A
1:30 pm45 °FPartly sunny.21 mph71%29.71 "HgN/A
1:00 pm45 °FLight rain. Overcast.21 mph66%29.71 "HgN/A
Weather by CustomWeather, © 2016

See weather overviewHow to use our weather pages